This is the latest recevied weather packets stored in our database for station/object KC5DP. If no packets are shown the sender has not sent any weather packets the latest 10 day(s).
| Time | Temp. | Humidity | Pressure | Rain* | Wind** | Luminosity | Snow |
|---|---|---|---|---|---|---|---|
| 1777789937 | 10.56° C | 92% | 1018.8 hPa | 0 mm | - | 0 W/m² | - |
| 1777789634 | 10.56° C | 92% | 1018.8 hPa | 0 mm | - | 0 W/m² | - |
| 1777789334 | 10.56° C | 92% | 1018.8 hPa | 0 mm | - | 0 W/m² | - |
| 1777789030 | 10.56° C | 91% | 1018.7 hPa | 0 mm | - | 0 W/m² | - |
| 1777788727 | 10.56° C | 89% | 1019.2 hPa | 0 mm | - | 0 W/m² | - |
| 1777788422 | 10.56° C | 89% | 1019 hPa | 0 mm | - | 0 W/m² | - |
| 1777788116 | 11.11° C | 88% | 1018.9 hPa | 0 mm | - | 0 W/m² | - |
| 1777787812 | 11.11° C | 88% | 1018.9 hPa | 0 mm | - | 0 W/m² | - |
| 1777787508 | 11.11° C | 87% | 1019 hPa | 0 mm | - | 0 W/m² | - |
| 1777787203 | 11.11° C | 88% | 1019 hPa | 0 mm | - | 0 W/m² | - |
| 1777786901 | 11.11° C | 87% | 1019 hPa | 0 mm | - | 0 W/m² | - |
| 1777786599 | 11.11° C | 87% | 1018.9 hPa | 0 mm | - | 0 W/m² | - |
| 1777786297 | 11.11° C | 89% | 1018.9 hPa | 0 mm | - | 0 W/m² | - |
| 1777785993 | 11.67° C | 88% | 1019.1 hPa | 0 mm | - | 0 W/m² | - |
| 1777785690 | 11.67° C | 86% | 1018.9 hPa | 0 mm | - | 0 W/m² | - |
| 1777785385 | 11.67° C | 87% | 1019 hPa | 0 mm | - | 0 W/m² | - |
| 1777785083 | 11.67° C | 86% | 1019.2 hPa | 0 mm | - | 0 W/m² | - |
| 1777784779 | 11.67° C | 86% | 1019.1 hPa | 0 mm | - | 0 W/m² | - |
| 1777784476 | 11.67° C | 87% | 1019 hPa | 0 mm | - | 0 W/m² | - |
| 1777784174 | 11.67° C | 87% | 1019 hPa | 0 mm | - | 0 W/m² | - |
| 1777783870 | 12.22° C | 87% | 1019 hPa | 0 mm | - | 0 W/m² | - |
| 1777783567 | 11.67° C | 84% | 1019 hPa | 0 mm | - | 0 W/m² | - |
| 1777783265 | 12.22° C | 83% | 1019 hPa | 0 mm | - | 0 W/m² | - |
| 1777782960 | 11.67° C | 83% | 1019.2 hPa | 0 mm | - | 0 W/m² | - |
| 1777782658 | 11.67° C | 86% | 1019 hPa | 0 mm | - | 0 W/m² | - |
* Rain latest hour (hover to see other rain measurements)
** Current wind speed in m/s (hover to see current wind gust speed)